Flag for Ireland Weather past 2 weeks in Letterkenny, Ireland

Now
48 °F

Cool.


Feels Like: 46 °F
Forecast: 49 / 57 °F
Wind: 6 mph from West

Location: Castlederg

Current Time: Sep 2, 2015 at 5:56:03 AM

Latest Report: Sep 2, 2015 at 3:00 AM


Visibility: 31 mi

Pressure: 30.21 "Hg

Humidity: 100%

Dew point: 48 °F

Location of LetterkennyLocation

Historic Weather in Letterkenny — Graph

°F

Letterkenny temperature yesterday

Maximum temperature yesterday: 56 °F (at 4:00 PM)
Minimum temperature yesterday: 48 °F (at 7:00 AM)
Average temperature yesterday: 52 °F

Past Weeks' High & Low Weather Summary

 TemperatureHumidityPressure
High70 °F (Aug 20, 4:00 PM)100% (Aug 18, 3:00 AM)30.22 "Hg (Aug 18, 3:00 AM)
Low42 °F (Aug 25, 2:00 AM)58% (Aug 24, 4:00 PM)29.26 "Hg (Aug 26, 8:00 PM)
Average56 °F89%29.77 "Hg
* Reported Aug 18 3:00 AM — Sep 2 3:00 AM, Letterkenny, Weather by CustomWeather, © 2015

Note: Actual official high and low records may vary slightly from our data, if they occured in-between our weather recording intervals... More about our weather records

Advertising

Letterkenny weather history for previous 24 hours

 ConditionsComfort  
Time TempWeatherWind HumidityBarometerVisibility
3:00 AM
Wed, Sep 2
48 °FCool.6 mph100%30.21 "Hg31 mi
2:00 AM48 °FCool.3 mph100%30.22 "Hg28 mi
1:00 AM49 °FCool.3 mph100%30.22 "Hg31 mi
12:00 AM49 °FCool.5 mph100%30.22 "Hg31 mi
11:00 PM
Tue, Sep 1
48 °FCool.5 mph99%30.22 "Hg28 mi
10:00 PM50 °FCool.5 mph93%30.22 "Hg31 mi
9:00 PM51 °FCool.2 mph82%30.22 "Hg25 mi
8:00 PM53 °FCool.6 mph78%30.22 "Hg31 mi
7:00 PM53 °FLight freezing rain. Cloudy.9 mph84%30.21 "Hg31 mi
6:00 PM55 °FCool.8 mph83%30.20 "Hg16 mi
5:00 PM56 °FCool.9 mph85%30.20 "Hg7 mi
4:00 PM56 °FCool.8 mph91%30.20 "Hg22 mi
3:00 PM53 °FRain showers. Cloudy.9 mph94%30.20 "Hg18 mi
2:00 PM55 °FCool.12 mph79%30.20 "Hg22 mi
1:00 PM56 °FCool.9 mph78%30.19 "Hg28 mi
12:00 PM55 °FCool.9 mph82%30.20 "Hg31 mi
11:00 AM54 °FCool.7 mph81%30.20 "Hg28 mi
10:00 AM53 °FRain showers. Cloudy.7 mph88%30.19 "Hg12 mi
9:00 AM53 °FCool.6 mph84%30.18 "Hg25 mi
8:00 AM50 °FCool.5 mph96%30.18 "Hg25 mi
7:00 AM48 °FCool.3 mph100%30.18 "Hg22 mi
6:00 AM50 °FRain showers. Overcast.5 mph98%30.18 "Hg8 mi
5:00 AM50 °FCool.3 mph97%30.18 "Hg25 mi
Weather by CustomWeather, © 2015

See weather overviewHow to use our weather pages